Baltimore, MD

6:21 AM EST on December 15, 2017 (GMT -0500)
Baltimore-Washington International

Weather History for KBWI - October, 2012

Change the Weather History Date:

Monday, October 8, 2012

  Actual Average Record
Temperature  
Mean Temperature 48 °F 59 °F  
Max Temperature 54 °F 69 °F 91 °F (2007)
Min Temperature 41 °F 48 °F 31 °F (2001)
Degree Days  
Heating Degree Days 17 7  
Month to date heating degree days 39 49  
Since 1 July heating degree days 67 102  
Cooling Degree Days 0 1  
Month to date cooling degree days 24 9  
Year to date cooling degree days 1565 1154  
Moisture  
Dew Point 41 °F    
Average Humidity 78    
Maximum Humidity 96    
Minimum Humidity 59    
Precipitation  
Precipitation T in 0.12 in 4.37 in (2005)
Month to date precipitation 0.71 0.91  
Year to date precipitation 25.39 32.79  
Snow  
Snow 0.00 in 0.00 in - ()
Month to date snowfall 0.0 0.0  
Since 1 July snowfall 0.0 0.0  
Snow Depth 0.00 in    
Sea Level Pressure  
Sea Level Pressure 30.24 in    
Wind  
Wind Speed 4 mph (North)    
Max Wind Speed 12 mph    
Max Gust Speed 15 mph    
Visibility 10 miles    
Events      
T = Trace of Precipitation, MM = Missing Value Source: NWS Daily Summary

Daily Weather History Graph

Daily Weather History Graph

Search for Another Location

Airport or City:

Trip Planner

Search our weather history database for the weather conditions in past years. The results will help you decide how hot, cold, wet, or windy it might be!

Date:

Astronomy

Oct. 08, 2012 Rise Set
Actual Time 7:09 AM EDT 6:37 PM EDT
Civil Twilight 6:43 AM EDT 7:04 PM EDT
Nautical Twilight 6:12 AM EDT 7:35 PM EDT
Astronomical Twilight 5:41 AM EDT 8:06 PM EDT
Moon No Moon Rise 2:23 PM EDT (10/8)
Length of Visible Light 12h 21m
Length of Day
11h 27m
Waning Gibbous, 46% of the Moon is Illuminated
Oct 8
Waning Gibbous
Oct 15
New
Oct 21
First Quarter
Oct 29
Full
Nov 6
Last Quarter

Hourly Weather History & Observations

Time (EDT) Temp. Windchill Dew Point Humidity Pressure Visibility Wind Dir Wind Speed Gust Speed Precip Events Conditions
12:54 AM 46.0 °F 44.8 °F 44.1 °F 93% 30.18 in 10.0 mi WNW 3.5 mph - N/A   Clear
1:54 AM 45.0 °F - 42.1 °F 90% 30.19 in 10.0 mi Calm Calm - N/A   Partly Cloudy
2:54 AM 43.0 °F - 41.0 °F 93% 30.19 in 10.0 mi Calm Calm - N/A   Partly Cloudy
3:54 AM 42.1 °F - 41.0 °F 96% 30.19 in 10.0 mi Calm Calm - N/A   Partly Cloudy
4:54 AM 41.0 °F - 39.9 °F 96% 30.21 in 8.0 mi Calm Calm - N/A   Scattered Clouds
5:54 AM 41.0 °F - 39.9 °F 96% 30.22 in 8.0 mi Calm Calm - N/A   Mostly Cloudy
6:54 AM 42.1 °F 39.2 °F 39.9 °F 92% 30.23 in 10.0 mi NW 4.6 mph - N/A   Mostly Cloudy
7:54 AM 44.1 °F 42.5 °F 39.9 °F 85% 30.27 in 10.0 mi West 3.5 mph - N/A   Mostly Cloudy
8:54 AM 46.0 °F - 42.1 °F 86% 30.28 in 10.0 mi Calm Calm - N/A   Mostly Cloudy
9:54 AM 48.0 °F - 39.9 °F 74% 30.29 in 10.0 mi North 4.6 mph - N/A   Overcast
10:54 AM 50.0 °F - 39.9 °F 68% 30.29 in 10.0 mi NE 6.9 mph - N/A   Overcast
11:54 AM 50.0 °F - 39.9 °F 68% 30.30 in 10.0 mi Calm Calm - N/A   Overcast
12:54 PM 52.0 °F - 39.9 °F 63% 30.30 in 10.0 mi North 4.6 mph - 0.00 in   Overcast
1:54 PM 52.0 °F - 39.9 °F 63% 30.27 in 10.0 mi NE 4.6 mph - N/A   Mostly Cloudy
2:54 PM 53.1 °F - 39.0 °F 59% 30.27 in 10.0 mi NNW 5.8 mph - N/A   Overcast
3:54 PM 54.0 °F - 39.9 °F 59% 30.27 in 10.0 mi Variable 3.5 mph - 0.00 in   Overcast
4:54 PM 53.1 °F - 41.0 °F 64% 30.25 in 10.0 mi NNW 4.6 mph - N/A   Overcast
5:54 PM 52.0 °F - 39.9 °F 63% 30.24 in 10.0 mi NNE 8.1 mph - N/A   Overcast
6:54 PM 51.1 °F - 43.0 °F 74% 30.23 in 10.0 mi North 5.8 mph - N/A   Overcast
7:54 PM 51.1 °F - 42.1 °F 71% 30.23 in 10.0 mi NNE 4.6 mph - N/A   Overcast
8:54 PM 50.0 °F - 42.1 °F 74% 30.24 in 10.0 mi NNE 8.1 mph - N/A   Overcast
9:54 PM 50.0 °F - 43.0 °F 77% 30.22 in 10.0 mi NE 9.2 mph - N/A   Overcast
10:54 PM 50.0 °F - 42.1 °F 74% 30.22 in 10.0 mi NNE 5.8 mph - N/A   Overcast
11:54 PM 50.0 °F - 42.1 °F 74% 30.21 in 10.0 mi North 5.8 mph - N/A   Overcast